Regional Weather Roundup
Issued by NWS

Home | Current Version | Previous Version | Graphics & Text | Print | Product List | Glossary On
Versions: 1 2 3 4 5 6 7 8 9 10 11 12 13 14 15 16 17 18 19 20 21 22 23 24 25 26 27
000
ASUS45 KPSR 220210
RWRAZ

ARIZONA HOURLY REGIONAL WEATHER ROUNDUP
NATIONAL WEATHER SERVICE PHOENIX AZ
700 PM MST TUE FEB 21 2017

NOTE: FAIR INDICATES FEW OR NO CLOUDS BELOW 12,000 FEET WITH NO
SIGNIFICANT WEATHER AND/OR OBSTRUCTIONS TO VISIBILITY.

AZZ001>003-036-220300-
NORTHWEST ARIZONA

CITY           SKY/WX    TMP DP  RH WIND       PRES   REMARKS
BULLHEAD CITY  MOCLDY    64  55  72 E5        30.13F
KINGMAN        MOCLDY    56  45  66 SW6       30.19F
$$

AZZ004>008-015-016-018-220300-
NORTH CENTRAL ARIZONA

CITY           SKY/WX    TMP DP  RH WIND       PRES   REMARKS
GRAND CANYON   LGT RAIN  45  41  86 S9        30.28F
WILLIAMS       CLOUDY    45  43  93 SW5       30.33S
PRESCOTT       CLEAR     55  41  59 W7        30.28S
FLAGSTAFF      MOCLDY    48  40  73 W10       30.33R
PAYSON         CLEAR     55  46  71 W6        30.31S
PAGE           MOCLDY    60  35  39 S5        30.13F
$$

AZZ009>014-017-220300-
NORTHEAST ARIZONA

CITY           SKY/WX    TMP DP  RH WIND       PRES   REMARKS
WINSLOW        CLEAR     59  40  49 W12       30.23R
SAINT JOHNS    CLOUDY    59  33  37 W5        30.25R
WINDOW ROCK    CLEAR     49  33  54 CALM      30.28F
SHOW LOW       CLEAR     52  32  46 SW7       30.32R
$$

AZZ023-220300-
GREATER PHOENIX AREA

CITY           SKY/WX    TMP DP  RH WIND       PRES   REMARKS
PHOENIX        MOCLDY    71  50  47 W7        30.14S
BUCKEYE        CLEAR     66  64  94 SE3       30.15F
GLENDALE       MOCLDY    70  57  64 VRB5      30.16S
LUKE AFB       CLEAR     70  53  55 S6        30.13F
DEER VALLEY    CLEAR     69  54  58 CALM      30.15S
SCOTTSDALE     CLEAR     71  49  45 CALM      30.17F
MESA-FALCON    CLEAR    N/A N/A N/A CALM      30.13S
MESA-GATEWAY   PTCLDY    68  52  56 W6        30.17R
CHANDLER       CLEAR     72  50  46 W7        30.16R
$$

AZZ027-028-220300-
SOUTHWEST MARICOPA COUNTY AND PINAL COUNTY

CITY           SKY/WX    TMP DP  RH WIND       PRES   REMARKS
CASA GRANDE    NOT AVBL
GILA BEND      MOCLDY    71  54  55 CALM      30.14S
$$

AZZ503-504-507>509-220300-
SOUTHEAST ARIZONA

CITY           SKY/WX    TMP DP  RH WIND       PRES   REMARKS
TUCSON         CLEAR     68  48  48 NW9       30.20R
DAVIS-MONTHAN  CLEAR     66  48  53 NW12      30.19R
RYAN FIELD     CLEAR     66  48  52 NW12      30.20R
NOGALES        CLEAR     66  37  34 N3        30.22R
SIERRA VISTA   CLEAR     60  37  42 W8        30.27R
DOUGLAS        CLEAR     65  34  31 CALM      30.22R
SAFFORD        LGT RAIN  65  38  36 NW5       30.16R
$$

AZZ020-021-025-026-031-220300-
SOUTHWEST ARIZONA

CITY           SKY/WX    TMP DP  RH WIND       PRES   REMARKS
YUMA           CLEAR     73  48  41 NW6       30.12S
$$

CAZ031-033-041-043-047-048-061-220300-
SOUTHERN CALIFORNIA

CITY           SKY/WX    TMP DP  RH WIND       PRES   REMARKS
DOWNTOWN L.A.  CLOUDY    64  54  69 CALM      30.22S
L.A. AIRPORT   MOCLDY    61  55  81 W10       30.23S
SAN DIEGO      MOCLDY    63  54  72 NW7       30.23R
BURBANK        CLOUDY    55  49  80 N6        30.23S HAZE
ONTARIO        CLOUDY    64  45  49 W6        30.21S
RIVERSIDE      CLOUDY    62  49  62 W6        30.21S
PALM SPRINGS   MOCLDY    72  49  44 N3        30.15F
EL CENTRO NAS  MOCLDY    69  52  54 NE6       30.14S
IMPERIAL       CLEAR     71  57  61 N6        30.12S
BLYTHE         PTCLDY    70  58  65 N3        30.13S
NEEDLES        MOCLDY    68  56  65 CALM      30.13F
$$

NVZ020-UTZ003-220300-
SOUTHERN NEVADA-UTAH

CITY           SKY/WX    TMP DP  RH WIND       PRES   REMARKS
LAS VEGAS      MOCLDY    64  40  41 S8        30.09S
SALT LAKE CITY RAIN      42  38  85 NW21      30.06R FOG
$$

NMZ009-TXZ055-220300-
NEW MEXICO-WEST TEXAS

CITY           SKY/WX    TMP DP  RH WIND       PRES   REMARKS
ALBUQUERQUE    PTCLDY    62  27  26 N9        30.19S
EL PASO        CLEAR     67  31  26 SW9       30.18R
$$


........................KEY........................
SKY/WX - SKY CONDITION/WEATHER
TMP    - TEMPERATURE IN FAHRENHEIT
DP     - DEW POINT IN FAHRENHEIT
RH     - RELATIVE HUMIDITY IN PERCENT
WIND   - DIRECTION AND SPEED IN MILES PER HOUR (MPH)
VRB    - VARIABLE WIND DIRECTION
PRES   - MEAN SEA LEVEL PRESSURE IN INCHES OF MERCURY
         F - FALLING PRESSURE   R - RISING PRESSURE
         S - STEADY PRESSURE
VSB    - VISIBILITY IN MILES
HX     - HEAT INDEX IN FAHRENHEIT
WCI    - WIND CHILL INDEX IN FAHRENHEIT
TC     - TEMPERATURE IN CELSIUS WHICH IS ALSO KNOWN AS
         TEMPERATURE IN CENTIGRADE
AFB    - AIR FORCE BASE
         LUKE AFB IS LUKE AIR FORCE BASE
         DAVIS-MONTHAN IS DAVIS-MONTHAN AIR FORCE BASE
NAS    - NAVAL AIR STATION
         EL CENTRO NAS IS EL CENTRO NAVAL AIR STATION
N/A    - NOT AVAILABLE





USA.gov is the U.S. government's official web portal to all federal, state and local government web resources and services.